Dewpoint
22 23 23 24 24 24 24 24 24 25 24 24 25 26 27 28 28 28 28 28 27 27 26 25 24 22 21 21 19 19 19 19 19 18 17 17 16 15 14 12 12 12 13 12 13 14 16 16 15 14 15 15 14 13 13 13 13 13 13 12 11 12 11 9 8 8 7 7 6 6 7 6 5 5 5 6 8 8 11 9 9 8 7 7 7
22 23 23 24 23 24 24 24 25 25 24 24 25 25 26 27 27 28 28 28 27 27 26 26 25 23 22 21 21 20 19 19 19 18 18 18 17 16 14 13 13 13 14 14 14 16 17 16 17 17 17 15 14 13 13 13 13 12 12 12 11 11 10 10 9 8 7 7 8 7 7 6 5 6 5 6 6 8 7 7 6 7 7 7 7
22 23 23 23 23 24 24 24 24 23 23 24 24 25 26 26 27 27 27 28 28 27 27 26 25 24 23 21 21 20 20 20 19 19 18 18 17 16 15 14 14 14 16 16 17 17 17 17 17 17 16 15 14 13 13 13 13 13 13 13 12 12 11 10 10 10 8 7 7 7 7 6 5 5 7 6 6 5 5 6 7 7 8 8 7
22 23 23 23 24 24 24 24 24 24 23 23 24 24 25 26 27 27 28 28 28 28 27 26 25 24 23 21 21 23 20 22 21 20 20 18 17 17 16 16 16 18 19 19 18 18 17 17 17 17 15 14 14 13 13 13 13 13 13 13 13 12 11 11 11 11 10 8 8 7 7 7 7 7 6 6 5 4 5 6 8 8 8 8 6
22 23 23 23 23 23 24 24 24 24 24 23 23 24 26 26 27 27 27 28 29 29 28 27 26 25 24 22 21 21 21 22 22 22 20 19 18 18 18 20 20 20 20 20 20 19 18 17 17 16 16 14 14 13 13 13 13 13 13 12 12 12 13 12 11 10 10 8 7 8 8 8 7 7 7 5 4 5 7 7 6 6 6 7 6
23 23 23 23 23 23 23 24 24 23 23 23 24 25 26 27 27 27 28 29 29 29 29 28 27 26 25 23 23 22 22 23 23 21 20 20 19 21 21 21 21 21 21 20 20 19 18 18 17 16 16 15 14 14 15 14 14 13 13 13 13 13 13 11 11 10 10 9 8 8 8 8 8 7 5 5 6 7 6 5 6 5 4 4 5
23 23 23 23 23 23 23 24 24 23 23 24 25 26 27 27 27 28 28 29 29 29 29 29 28 27 26 25 24 23 23 23 22 21 21 20 22 22 22 21 21 22 21 21 20 19 19 18 17 17 16 15 15 14 14 14 14 14 14 14 14 13 13 12 12 11 10 10 9 9 9 9 8 6 5 7 8 7 6 4 3 4 5 3 4
24 24 24 23 23 24 24 24 24 25 25 25 26 26 27 28 28 28 29 29 29 29 29 28 28 28 27 26 25 24 23 23 23 23 23 22 22 22 22 22 22 21 21 20 20 19 19 18 18 17 16 16 15 15 14 14 14 14 14 14 14 13 13 12 12 11 11 10 10 9 9 9 6 7 8 8 8 7 6 6 4 4 4 5 4
25 24 23 23 24 25 25 25 26 25 26 26 27 28 28 28 28 28 28 28 28 28 28 28 28 28 28 27 26 25 24 23 23 23 23 23 23 22 22 22 22 21 20 19 19 19 19 18 18 17 17 18 18 17 16 16 14 13 14 14 14 14 13 12 12 12 11 11 10 9 9 9 7 7 8 8 8 7 7 7 6 6 6 5 4
24 22 22 23 25 26 26 26 25 25 26 26 27 28 28 28 28 28 28 28 29 29 29 28 27 28 28 27 26 25 24 24 24 26 25 23 23 23 22 22 21 21 20 19 18 18 18 18 18 19 18 19 19 18 18 18 18 14 14 14 14 13 13 12 12 12 12 11 11 10 10 10 8 8 9 9 9 9 9 8 7 7 7 7 5
22 21 21 22 24 25 26 26 26 25 25 27 27 28 28 28 28 28 28 28 29 29 28 27 27 27 27 27 26 25 24 24 26 27 28 27 24 23 22 21 21 20 20 19 18 18 17 17 17 18 19 19 19 20 19 19 19 18 17 17 17 14 12 12 12 12 11 11 11 11 10 10 10 11 11 12 13 10 10 9 8 7 5 4 4
20 19 20 20 21 23 24 26 26 26 27 28 28 28 28 28 28 28 28 27 29 29 28 28 27 26 26 26 26 25 25 26 27 28 28 28 27 23 22 21 21 20 20 19 18 17 17 16 16 17 18 18 19 19 20 20 20 20 19 19 19 19 17 13 12 11 12 11 11 12 12 12 12 13 13 13 12 11 10 9 8 7 7 6 6
17 17 17 18 18 20 22 24 26 27 27 27 27 27 27 27 27 27 27 27 28 29 30 29 28 27 27 26 26 25 25 26 28 28 29 29 29 26 22 21 20 20 19 19 18 17 17 16 16 15 17 19 18 19 19 19 20 20 20 20 20 20 20 19 18 14 13 12 12 13 13 14 13 13 13 12 12 10 9 8 9 9 10 9 7
15 16 17 18 19 19 21 24 26 27 27 27 27 27 27 27 27 28 28 29 29 29 30 29 29 28 27 26 26 25 25 26 27 28 29 29 29 27 22 21 20 19 19 19 18 18 17 16 15 15 16 18 18 18 18 18 19 20 20 20 19 19 20 20 20 20 17 16 16 14 14 13 11 12 13 13 11 10 10 10 12 11 10 9 9
15 16 17 19 20 22 23 25 26 26 26 26 26 27 27 27 27 28 28 28 29 29 29 29 28 28 27 26 25 25 25 26 27 28 28 29 29 29 22 21 20 19 19 18 18 18 17 16 16 15 15 17 18 18 17 17 17 17 18 18 18 17 16 15 14 13 13 13 12 12 12 12 11 11 12 13 13 13 14 14 12 11 9 8 6
15 17 19 21 21 19 21 23 25 26 26 26 27 27 27 27 27 27 28 29 30 30 29 28 28 27 26 25 25 24 24 27 27 28 28 29 29 28 22 20 19 19 19 18 17 16 16 16 16 15 15 15 19 21 19 17 16 15 15 15 15 13 13 14 16 16 16 14 13 13 13 13 15 15 16 17 15 12 10 8 7 5 2 -1 -2
17 19 17 17 19 20 22 25 26 26 27 27 27 27 26 26 26 27 28 28 29 29 30 29 28 27 26 25 24 24 24 25 27 27 28 28 28 27 22 20 19 18 18 18 17 17 16 16 15 15 15 14 18 22 22 19 15 14 13 12 12 11 11 11 15 17 16 17 19 21 20 19 18 18 18 17 13 11 7 3 0 -1 -3 -3 -4
11 12 15 17 19 21 25 28 27 27 28 28 28 27 26 26 27 28 28 28 28 29 29 29 28 27 25 24 23 23 23 24 26 27 28 28 28 26 21 20 19 18 18 18 17 17 16 19 17 16 15 14 19 22 22 20 13 13 12 11 10 10 10 10 8 8 16 16 16 16 15 15 14 11 10 12 12 10 3 -1 -1 -1 -4 -4 -6
12 14 16 17 20 23 25 26 27 27 28 28 28 27 26 26 27 28 28 29 29 29 29 28 27 26 25 23 24 24 23 23 25 26 28 28 27 26 20 20 18 17 17 17 17 16 16 19 20 17 16 16 20 22 22 20 13 13 12 11 10 10 10 10 9 7 4 1 -0 -5 -3 0 -10 -13 -10 5 6 4 -3 -3 -5 -6 -7 -7 -7
13 15 16 18 20 22 24 25 26 27 28 28 27 26 27 27 27 28 28 28 28 29 28 27 26 25 24 23 22 23 23 23 23 26 27 28 28 25 20 19 18 17 17 16 16 16 16 17 19 20 20 20 21 22 22 22 15 14 13 11 11 10 11 7 5 4 -2 -7 -9 -13 -13 -14 -15 -15 -15 -15 -14 -12 -9 -8 -7 -7 -8 -8 -8
15 16 16 19 20 21 22 24 26 27 28 27 27 27 27 27 27 28 27 27 27 27 27 25 24 24 24 23 22 22 23 22 23 25 26 27 28 27 21 20 19 17 16 16 15 15 15 16 17 20 21 21 21 22 22 22 20 15 14 13 13 12 11 7 8 9 -6 -10 -13 -14 -14 -15 -16 -17 -17 -16 -14 -13 -11 -10 -9 -8 -8 -9 -9
13 13 14 16 18 20 23 25 27 27 27 27 26 26 27 27 27 27 26 26 27 27 26 24 23 22 22 22 22 21 22 23 21 24 25 26 27 28 22 20 19 17 16 15 15 15 14 15 16 20 22 22 22 22 22 22 23 16 15 18 18 17 4 -0 -5 -9 -12 -14 -14 -14 -15 -16 -16 -15 -15 -14 -13 -12 -12 -12 -12 -10 -9 -8 -9
11 11 13 16 19 22 24 25 27 27 27 26 26 26 26 27 26 26 27 27 27 25 24 23 21 20 20 20 21 21 21 22 23 22 24 26 26 27 25 22 23 18 16 15 15 14 15 15 16 20 22 22 22 22 22 22 21 16 20 19 20 15 6 -8 -10 -14 -13 -14 -14 -14 -15 -16 -16 -15 -15 -15 -14 -14 -14 -13 -12 -12 -11 -9 -8
10 12 14 15 17 21 24 26 27 28 26 26 26 26 26 26 27 27 27 27 26 24 23 21 20 19 18 18 18 19 20 20 22 23 22 24 26 26 27 25 24 19 17 16 15 15 15 15 17 22 23 23 23 22 22 20 16 20 19 20 16 9 -9 -10 -12 -13 -14 -14 -14 -14 -15 -15 -16 -16 -15 -14 -14 -13 -14 -14 -13 -12 -12 -11 -9
11 11 12 14 16 19 23 26 28 28 27 27 26 27 27 27 27 27 27 26 25 23 22 21 19 18 18 17 17 18 18 19 19 22 23 23 25 25 26 26 24 22 18 17 16 15 17 19 21 23 23 22 22 22 21 19 20 20 18 15 8 -8 -11 -13 -14 -15 -14 -14 -14 -15 -15 -15 -15 -14 -13 -13 -13 -14 -15 -15 -13 -12 -11 -9 -8
10 10 11 13 15 18 23 27 28 28 28 27 27 27 27 27 27 27 27 25 23 22 20 19 18 18 17 17 16 17 17 18 18 19 22 22 23 24 26 26 24 23 20 17 19 20 21 22 22 23 22 21 17 14 14 17 20 17 13 5 -10 -10 -12 -12 -14 -14 -14 -14 -15 -14 -14 -14 -14 -14 -13 -13 -16 -16 -16 -15 -14 -13 -12 -12 -10
9 9 10 11 14 18 24 26 27 27 28 28 27 28 28 28 28 27 25 23 22 21 19 18 18 17 16 16 16 16 16 16 16 17 19 21 21 22 24 25 25 24 20 18 20 19 20 21 21 21 19 19 17 18 15 11 -1 -7 -11 -12 -11 -11 -10 -10 -12 -13 -14 -15 -15 -15 -15 -15 -14 -15 -16 -16 -17 -16 -15 -14 -14 -14 -13 -13 -11
7 8 9 12 15 20 25 25 26 27 27 27 27 27 28 28 27 26 24 23 21 20 18 17 17 17 16 16 16 15 15 15 16 16 17 19 20 20 22 23 23 20 18 19 19 19 20 21 17 11 6 2 -2 -5 -7 -9 -11 -12 -13 -14 -12 -8 -3 2 -2 -15 -16 -17 -16 -16 -16 -16 -17 -16 -16 -17 -17 -16 -16 -14 -14 -15 -15 -14 -13
7 7 9 12 14 20 23 25 25 25 26 26 27 28 27 27 27 26 24 23 22 20 19 19 18 18 17 16 15 14 14 14 15 18 17 20 20 19 20 21 21 19 19 20 13 11 10 8 7 6 4 1 -1 -5 -8 -10 -13 -14 -15 -15 -14 -13 -12 -11 -12 -14 -15 -16 -15 -15 -15 -16 -17 -17 -17 -17 -16 -16 -15 -13 -15 -17 -16 -15 -15
5 6 9 10 13 15 17 21 24 25 25 26 27 27 26 28 27 26 24 24 24 24 25 21 19 18 18 17 17 15 14 15 18 21 20 22 22 22 22 22 22 20 22 20 14 10 9 8 7 4 1 -0 -4 -7 -9 -11 -12 -12 -11 -4 -14 -14 -15 -15 -15 -15 -14 -14 -15 -16 -16 -16 -17 -18 -18 -17 -17 -17 -15 -8 -16 -17 -17 -17 -16
4 5 8 9 11 13 15 16 20 23 25 26 26 26 26 25 26 25 24 22 22 23 23 25 25 23 19 17 18 20 19 19 20 21 22 22 22 22 23 23 23 23 21 14 11 9 7 5 3 2 0 -1 -3 -6 -10 -11 -12 -10 -9 -10 -13 -11 -10 -15 -15 -14 -14 -14 -15 -16 -17 -17 -17 -18 -18 -18 -18 -17 -18 -17 -18 -17 -17 -17 -17
3 4 6 8 10 12 12 14 16 19 22 25 26 26 25 24 23 23 22 22 22 22 22 22 23 23 24 21 18 18 20 20 20 22 22 22 23 23 23 24 24 23 21 17 9 7 6 3 2 -0 -1 -2 -6 -9 -11 -11 -12 -11 -12 -13 -12 -13 -13 -13 -13 -15 -14 -15 -16 -16 -17 -18 -18 -18 -19 -19 -18 -19 -18 -18 -18 -18 -17 -17 -16
2 4 6 7 8 10 11 11 13 15 18 22 25 25 25 23 20 20 19 20 20 21 20 20 20 21 22 23 23 21 21 21 21 22 22 22 23 23 23 24 24 23 19 11 7 6 5 3 0 -2 -2 -4 -9 -10 -11 -11 -12 -13 -13 -12 -12 -12 -13 -11 -8 -15 -13 -14 -16 -17 -18 -19 -19 -19 -20 -20 -20 -20 -19 -19 -19 -18 -18 -18 -17
2 4 5 6 7 8 8 9 10 12 15 20 24 25 24 22 20 18 17 17 15 16 17 18 18 19 19 21 24 23 22 22 22 22 22 23 23 23 23 22 24 21 15 9 7 5 4 3 0 -1 -2 -6 -10 -11 -12 -12 -13 -13 -14 -13 -13 -14 -13 -14 -14 -14 -16 -17 -18 -17 -18 -20 -19 -21 -20 -21 -21 -21 -20 -20 -20 -19 -18 -18 -18
1 4 7 7 6 6 7 8 9 11 14 18 21 23 24 21 18 17 16 14 13 12 11 11 14 16 16 18 20 24 23 22 22 22 22 23 23 23 23 20 18 14 10 8 7 6 4 2 -0 -1 -5 -9 -10 -11 -11 -12 -13 -13 -12 -14 -16 -16 -16 -16 -16 -18 -18 -19 -18 -18 -18 -20 -22 -21 -22 -21 -21 -20 -21 -20 -21 -19 -18 -19 -18
1 1 2 3 4 5 6 7 9 11 13 15 19 22 22 20 18 16 15 13 12 11 10 10 11 14 17 18 20 23 23 22 22 22 22 23 23 23 19 17 12 10 8 7 6 5 3 2 -0 -2 -6 -9 -10 -10 -11 -12 -12 -12 -12 -14 -15 -15 -15 -16 -16 -19 -20 -20 -17 -16 -18 -22 -22 -22 -23 -22 -23 -22 -22 -22 -21 -19 -18 -19 -18
0 0 1 2 3 4 6 7 8 10 14 15 18 21 22 20 17 15 14 12 11 11 10 9 11 10 14 15 19 23 23 22 22 22 23 22 23 21 17 14 11 8 6 5 4 3 2 1 -0 -3 -7 -9 -10 -10 -11 -11 -12 -12 -7 -14 -15 -15 -16 -17 -18 -18 -20 -20 -21 -23 -23 -23 -24 -23 -23 -22 -21 -22 -22 -21 -22 -19 -17 -18 -18
-0 0 1 3 4 5 5 6 8 11 12 14 17 19 20 20 17 14 13 12 12 10 9 9 11 9 10 12 18 22 22 22 22 22 22 22 21 17 14 11 9 7 5 4 3 3 1 -2 -3 -5 -7 -9 -9 -10 -11 -12 -12 -11 -11 -14 -15 -14 -6 -8 -8 -19 -23 -24 -23 -22 -21 -23 -25 -23 -22 -22 -22 -22 -22 -22 -22 -22 -21 -20 -20
-0 2 4 5 6 4 5 6 7 9 11 13 14 16 18 19 17 15 13 11 10 9 9 9 8 9 10 12 14 22 22 20 19 18 19 17 14 13 11 10 8 6 5 4 3 2 0 -3 -5 -6 -8 -9 -10 -11 -11 -12 -12 -11 -12 -13 -12 -9 -5 -17 -20 -23 -23 -22 -23 -26 -24 -24 -24 -24 -23 -23 -22 -23 -24 -23 -22 -22 -22 -21 -21
0 0 2 5 4 5 5 6 7 8 10 11 12 14 17 19 17 15 13 11 10 9 9 9 8 9 11 13 17 19 17 17 17 16 14 13 12 11 11 9 6 4 3 3 2 1 -1 -4 -6 -8 -9 -9 -10 -10 -11 -11 -11 -13 -13 -11 -9 -10 -15 -19 -21 -22 -21 -25 -24 -25 -24 -23 -23 -23 -24 -22 -20 -23 -24 -22 -22 -21 -22 -22 -21
1 1 4 5 5 4 5 5 6 7 9 10 11 13 17 18 16 14 12 11 10 9 9 9 9 9 11 17 20 19 16 16 15 14 13 12 11 10 9 8 6 5 3 3 1 -1 -2 -4 -7 -8 -9 -10 -10 -11 -11 -11 -12 -13 -12 -11 -11 -13 -20 -24 -24 -23 -24 -25 -25 -24 -24 -24 -22 -22 -19 -20 -10 -19 -24 -23 -23 -23 -22 -23 -21
2 3 4 4 4 4 4 5 6 8 8 10 11 13 15 17 16 14 12 11 10 9 9 8 9 9 13 20 20 20 15 14 13 12 12 11 10 9 8 7 6 5 4 2 -0 -3 -4 -6 -8 -9 -10 -10 -10 -11 -12 -12 -13 -13 -12 -12 -13 -18 -20 -22 -24 -24 -25 -24 -26 -25 -24 -21 -19 -16 -17 -9 -27 -26 -23 -22 -22 -22 -22 -22 -22
4 4 4 4 4 4 4 4 6 6 8 10 11 12 14 15 15 13 11 10 10 9 9 8 8 9 11 16 18 16 13 13 10 11 11 10 9 8 7 6 5 4 2 1 0 -2 -5 -7 -8 -9 -9 -9 -9 -10 -11 -12 -12 -12 -12 -13 -16 -17 -18 -21 -24 -25 -27 -25 -25 -22 -23 -23 -21 -23 -24 -24 -26 -24 -24 -24 -22 -21 -22 -23 -22
4 5 5 4 4 4 5 5 6 8 9 11 12 13 14 15 13 12 11 10 9 9 9 8 8 9 11 13 14 13 12 11 11 11 10 9 8 6 4 3 2 0 -1 -2 -3 -5 -6 -7 -8 -8 -8 -9 -9 -10 -10 -11 -11 -12 -12 -14 -15 -17 -18 -19 -20 -22 -23 -23 -22 -22 -25 -23 -23 -23 -21 -22 -25 -21 -21 -22 -21 -21 -20 -21 -21
4 4 4 4 4 4 5 6 7 8 10 11 12 14 16 14 13 12 11 10 9 9 9 9 9 9 11 12 12 11 10 10 9 9 8 7 5 4 3 1 0 -1 -2 -4 -5 -6 -6 -7 -8 -9 -10 -10 -10 -10 -11 -11 -12 -12 -13 -14 -15 -15 -17 -17 -18 -20 -21 -21 -20 -22 -24 -23 -24 -26 -23 -23 -22 -23 -21 -23 -22 -19 -20 -20 -21
4 3 4 4 4 5 6 7 9 10 11 12 13 14 16 14 13 12 11 10 9 9 9 8 9 10 11 11 11 10 9 9 8 7 6 4 3 2 2 0 -1 -2 -4 -5 -6 -6 -7 -8 -9 -9 -10 -11 -12 -12 -12 -13 -13 -14 -14 -15 -13 -14 -15 -17 -20 -21 -21 -21 -21 -22 -23 -25 -26 -23 -20 -23 -21 -23 -23 -23 -22 -22 -22 -22 -21
3 3 4 5 5 6 7 9 10 11 12 13 14 15 17 13 12 11 11 10 10 9 9 9 9 10 11 10 10 9 8 7 6 5 3 2 2 1 0 -2 -4 -5 -6 -6 -6 -7 -8 -8 -9 -9 -10 -11 -12 -13 -13 -14 -15 -16 -16 -18 -18 -18 -19 -20 -20 -20 -21 -22 -21 -22 -22 -21 -20 -19 -21 -21 -21 -21 -20 -20 -20 -21 -22 -21 -21
3 4 4 6 6 7 8 9 10 12 13 14 16 17 14 12 12 11 10 10 9 9 9 9 9 10 10 10 9 8 7 6 5 3 2 1 0 -0 -1 -4 -5 -6 -7 -7 -7 -8 -8 -9 -9 -10 -11 -12 -13 -14 -14 -16 -16 -17 -18 -19 -20 -20 -19 -19 -22 -24 -23 -23 -24 -23 -22 -22 -23 -24 -23 -24 -22 -22 -18 -18 -21 -20 -21 -22 -22
4 4 5 6 7 8 9 10 11 11 12 16 16 14 13 12 11 11 10 10 10 9 9 9 9 10 10 9 8 7 6 5 3 1 0 -0 -1 -1 -3 -4 -6 -7 -7 -8 -8 -9 -10 -10 -11 -11 -12 -12 -13 -14 -15 -16 -17 -17 -19 -20 -18 -16 -17 -18 -21 -24 -21 -24 -25 -26 -27 -26 -25 -23 -23 -23 -22 -24 -23 -25 -24 -22 -22 -23 -22
4 5 6 7 8 9 9 9 9 10 13 15 16 14 13 12 11 11 10 10 9 9 9 9 9 9 9 8 7 6 4 2 1 -0 -1 -1 -2 -3 -4 -5 -6 -7 -8 -9 -10 -11 -11 -12 -12 -12 -12 -13 -14 -15 -15 -16 -17 -17 -19 -18 -15 -15 -16 -17 -18 -18 -21 -25 -24 -25 -24 -26 -26 -26 -25 -24 -24 -24 -22 -21 -22 -20 -21 -23 -22
5 6 6 7 7 7 8 8 9 10 12 14 14 14 13 12 11 10 10 9 9 9 9 9 9 9 8 7 6 4 2 1 0 -1 -2 -2 -3 -4 -5 -5 -6 -8 -9 -11 -11 -11 -12 -12 -12 -13 -14 -15 -15 -16 -16 -16 -18 -17 -16 -14 -14 -14 -15 -15 -17 -17 -20 -22 -26 -24 -21 -21 -22 -21 -23 -26 -28 -25 -20 -19 -20 -21 -22 -23 -24